contact:dominique.lefevre@mio.osupytheas.fr, maurice.libes@osupytheas.fr, didier.mallarino@osupytheas.fr
Project:EMSO http://www.emso-fr.org/EMSO-France
Depth: 2436.0 m
Title:EMSO Ligure Ouest : Data MII capteur MICROCAT
DateTime_Computer,Latitude,Longitude,Temperature,Conductivity,Pressure,DateTime_Instrument
DateTime_Computer,Latitude,Longitude,degC,S m-1,dbar,DateTime_Instrument
2020-05-15T00:02:26Z,42.805,6.029,13.3018,4.59999,2470.133,2020-5-15T02:03:08Z
2020-05-15T00:05:29Z,42.805,6.029,13.3006,4.59999,2470.147,2020-5-15T02:06:11Z
2020-05-15T00:08:33Z,42.805,6.029,13.3006,4.60002,2470.124,2020-5-15T02:09:15Z
2020-05-15T00:11:36Z,42.805,6.029,13.3006,4.60004,2470.11,2020-5-15T02:12:18Z
2020-05-15T00:14:39Z,42.805,6.029,13.2989,4.60002,2470.124,2020-5-15T02:15:21Z
2020-05-15T00:17:43Z,42.805,6.029,13.3004,4.59999,2470.147,2020-5-15T02:18:25Z
2020-05-15T00:20:46Z,42.805,6.029,13.3003,4.60006,2470.156,2020-5-15T02:21:28Z
2020-05-15T00:23:49Z,42.805,6.029,13.3029,4.60003,2470.133,2020-5-15T02:24:31Z
2020-05-15T00:26:52Z,42.805,6.029,13.3002,4.59999,2470.147,2020-5-15T02:27:34Z
2020-05-15T00:29:56Z,42.805,6.029,13.3011,4.60001,2470.156,2020-5-15T02:30:38Z
2020-05-15T00:32:59Z,42.805,6.029,13.3015,4.59994,2470.133,2020-5-15T02:33:41Z
2020-05-15T00:36:02Z,42.805,6.029,13.3000,4.59999,2470.156,2020-5-15T02:36:44Z
2020-05-15T00:39:06Z,42.805,6.029,13.3024,4.59996,2470.156,2020-5-15T02:39:48Z
2020-05-15T00:42:09Z,42.805,6.029,13.2997,4.59991,2470.147,2020-5-15T02:42:51Z
2020-05-15T00:45:12Z,42.805,6.029,13.2998,4.59996,2470.171,2020-5-15T02:45:54Z
2020-05-15T00:48:15Z,42.805,6.029,13.3000,4.59997,2470.147,2020-5-15T02:48:57Z
2020-05-15T00:51:19Z,42.805,6.029,13.3001,4.60002,2470.087,2020-5-15T02:52:01Z
2020-05-15T00:54:22Z,42.805,6.029,13.3021,4.60003,2470.147,2020-5-15T02:55:04Z
2020-05-15T00:57:25Z,42.805,6.029,13.3005,4.59995,2470.147,2020-5-15T02:58:07Z
2020-05-15T01:00:28Z,42.805,6.029,13.3009,4.60002,2470.147,2020-5-15T03:01:10Z
2020-05-15T01:03:31Z,42.805,6.029,13.3009,4.59998,2470.124,2020-5-15T03:04:13Z
2020-05-15T01:06:35Z,42.805,6.029,13.2999,4.59997,2470.133,2020-5-15T03:07:17Z
2020-05-15T01:09:38Z,42.805,6.029,13.3007,4.60000,2470.156,2020-5-15T03:10:20Z
2020-05-15T01:12:41Z,42.805,6.029,13.3000,4.59997,2470.133,2020-5-15T03:13:23Z
2020-05-15T01:15:44Z,42.805,6.029,13.2999,4.60002,2470.156,2020-5-15T03:16:26Z
2020-05-15T01:18:48Z,42.805,6.029,13.2994,4.59997,2470.156,2020-5-15T03:19:30Z
2020-05-15T01:21:51Z,42.805,6.029,13.2996,4.60002,2470.133,2020-5-15T03:22:33Z
2020-05-15T01:24:54Z,42.805,6.029,13.3024,4.60000,2470.133,2020-5-15T03:25:36Z
2020-05-15T01:27:57Z,42.805,6.029,13.3012,4.60001,2470.133,2020-5-15T03:28:39Z
2020-05-15T01:31:01Z,42.805,6.029,13.3004,4.60004,2470.147,2020-5-15T03:31:43Z
2020-05-15T01:34:04Z,42.805,6.029,13.3030,4.59998,2470.133,2020-5-15T03:34:46Z
2020-05-15T01:37:07Z,42.805,6.029,13.3004,4.59992,2470.171,2020-5-15T03:37:49Z
2020-05-15T01:40:10Z,42.805,6.029,13.3008,4.59996,2470.133,2020-5-15T03:40:52Z
2020-05-15T01:43:14Z,42.805,6.029,13.2997,4.60002,2470.147,2020-5-15T03:43:56Z
2020-05-15T01:46:17Z,42.805,6.029,13.3001,4.60002,2470.147,2020-5-15T03:46:59Z
2020-05-15T01:49:20Z,42.805,6.029,13.3004,4.60006,2470.156,2020-5-15T03:50:02Z
2020-05-15T01:52:23Z,42.805,6.029,13.3002,4.59995,2470.147,2020-5-15T03:53:05Z
2020-05-15T01:55:27Z,42.805,6.029,13.2997,4.60000,2470.11,2020-5-15T03:56:09Z
2020-05-15T01:58:30Z,42.805,6.029,13.2998,4.59994,2470.133,2020-5-15T03:59:12Z
2020-05-15T02:01:33Z,42.805,6.029,13.3003,4.60003,2470.133,2020-5-15T04:02:15Z
2020-05-15T02:04:36Z,42.805,6.029,13.3004,4.60003,2470.147,2020-5-15T04:05:18Z
2020-05-15T02:07:40Z,42.805,6.029,13.3031,4.59995,2470.11,2020-5-15T04:08:21Z
2020-05-15T02:10:43Z,42.805,6.029,13.3015,4.60002,2470.11,2020-5-15T04:11:25Z
2020-05-15T02:13:46Z,42.805,6.029,13.2998,4.60014,2470.11,2020-5-15T04:14:28Z
2020-05-15T02:16:49Z,42.805,6.029,13.3006,4.60013,2470.147,2020-5-15T04:17:31Z
2020-05-15T02:19:53Z,42.805,6.029,13.3006,4.59995,2470.133,2020-5-15T04:20:34Z
2020-05-15T02:22:56Z,42.805,6.029,13.2999,4.60013,2470.156,2020-5-15T04:23:38Z
2020-05-15T02:25:59Z,42.805,6.029,13.3010,4.60009,2470.133,2020-5-15T04:26:41Z
2020-05-15T02:29:02Z,42.805,6.029,13.3006,4.60009,2470.171,2020-5-15T04:29:44Z
2020-05-15T02:32:05Z,42.805,6.029,13.3006,4.60003,2470.147,2020-5-15T04:32:47Z
2020-05-15T02:35:09Z,42.805,6.029,13.3011,4.60007,2470.171,2020-5-15T04:35:51Z
2020-05-15T02:38:12Z,42.805,6.029,13.3009,4.60011,2470.147,2020-5-15T04:38:54Z
2020-05-15T02:41:15Z,42.805,6.029,13.3015,4.59994,2470.171,2020-5-15T04:41:57Z
2020-05-15T02:44:19Z,42.805,6.029,13.3002,4.60007,2470.171,2020-5-15T04:45:01Z
2020-05-15T02:47:22Z,42.805,6.029,13.3007,4.60001,2470.133,2020-5-15T04:48:04Z
2020-05-15T02:50:25Z,42.805,6.029,13.3013,4.60003,2470.147,2020-5-15T04:51:07Z
2020-05-15T02:53:28Z,42.805,6.029,13.2997,4.59996,2470.171,2020-5-15T04:54:10Z
2020-05-15T02:56:32Z,42.805,6.029,13.3002,4.60006,2470.133,2020-5-15T04:57:13Z
2020-05-15T02:59:35Z,42.805,6.029,13.3008,4.59998,2470.11,2020-5-15T05:00:17Z
2020-05-15T03:02:38Z,42.805,6.029,13.2999,4.60011,2470.156,2020-5-15T05:03:20Z
2020-05-15T03:05:41Z,42.805,6.029,13.3009,4.60003,2470.124,2020-5-15T05:06:23Z
2020-05-15T03:08:45Z,42.805,6.029,13.2999,4.60003,2470.124,2020-5-15T05:09:26Z
2020-05-15T03:11:48Z,42.805,6.029,13.3000,4.60001,2470.133,2020-5-15T05:12:30Z
2020-05-15T03:14:51Z,42.805,6.029,13.3000,4.60007,2470.147,2020-5-15T05:15:33Z
2020-05-15T03:17:54Z,42.805,6.029,13.3004,4.60002,2470.11,2020-5-15T05:18:36Z
2020-05-15T03:20:58Z,42.805,6.029,13.3012,4.60006,2470.124,2020-5-15T05:21:40Z
2020-05-15T03:24:01Z,42.805,6.029,13.3009,4.60003,2470.11,2020-5-15T05:24:43Z
2020-05-15T03:27:04Z,42.805,6.029,13.3018,4.60024,2470.133,2020-5-15T05:27:46Z
2020-05-15T03:30:07Z,42.805,6.029,13.3011,4.59998,2470.087,2020-5-15T05:30:49Z
2020-05-15T03:33:11Z,42.805,6.029,13.3003,4.59993,2470.133,2020-5-15T05:33:53Z
2020-05-15T03:36:14Z,42.805,6.029,13.3004,4.60006,2470.147,2020-5-15T05:36:56Z
2020-05-15T03:39:17Z,42.805,6.029,13.3000,4.60001,2470.087,2020-5-15T05:39:59Z
2020-05-15T03:42:20Z,42.805,6.029,13.3006,4.60004,2470.11,2020-5-15T05:43:02Z
2020-05-15T03:45:24Z,42.805,6.029,13.2998,4.60003,2470.133,2020-5-15T05:46:05Z
2020-05-15T03:48:27Z,42.805,6.029,13.2999,4.59992,2470.11,2020-5-15T05:49:09Z
2020-05-15T03:51:30Z,42.805,6.029,13.2998,4.59996,2470.1,2020-5-15T05:52:12Z
2020-05-15T03:54:34Z,42.805,6.029,13.2993,4.60000,2470.133,2020-5-15T05:55:16Z
2020-05-15T03:57:37Z,42.805,6.029,13.3002,4.59995,2470.124,2020-5-15T05:58:19Z
2020-05-15T04:00:40Z,42.805,6.029,13.3007,4.60003,2470.11,2020-5-15T06:01:22Z
2020-05-15T04:03:44Z,42.805,6.029,13.3007,4.59996,2470.124,2020-5-15T06:04:26Z
2020-05-15T04:06:47Z,42.805,6.029,13.3006,4.59995,2470.124,2020-5-15T06:07:29Z
2020-05-15T04:09:50Z,42.805,6.029,13.3000,4.59997,2470.1,2020-5-15T06:10:32Z
2020-05-15T04:12:53Z,42.805,6.029,13.3004,4.59999,2470.147,2020-5-15T06:13:35Z
2020-05-15T04:15:57Z,42.805,6.029,13.2993,4.59994,2470.11,2020-5-15T06:16:39Z
2020-05-15T04:19:00Z,42.805,6.029,13.3014,4.59999,2470.087,2020-5-15T06:19:42Z
2020-05-15T04:22:03Z,42.805,6.029,13.2995,4.59999,2470.147,2020-5-15T06:22:45Z
2020-05-15T04:25:06Z,42.805,6.029,13.3001,4.60001,2470.11,2020-5-15T06:25:48Z
2020-05-15T04:28:09Z,42.805,6.029,13.3004,4.60005,2470.147,2020-5-15T06:28:51Z
2020-05-15T04:31:13Z,42.805,6.029,13.2993,4.60010,2470.11,2020-5-15T06:31:55Z
2020-05-15T04:34:16Z,42.805,6.029,13.2996,4.60008,2470.087,2020-5-15T06:34:58Z
2020-05-15T04:37:20Z,42.805,6.029,13.2997,4.60000,2470.133,2020-5-15T06:38:01Z
2020-05-15T04:40:23Z,42.805,6.029,13.3002,4.60026,2470.1,2020-5-15T06:41:05Z
2020-05-15T04:43:26Z,42.805,6.029,13.2996,4.59998,2470.11,2020-5-15T06:44:08Z
2020-05-15T04:46:29Z,42.805,6.029,13.2996,4.60005,2470.11,2020-5-15T06:47:11Z
2020-05-15T04:49:33Z,42.805,6.029,13.3011,4.60014,2470.077,2020-5-15T06:50:14Z
2020-05-15T04:52:36Z,42.805,6.029,13.3015,4.60021,2470.1,2020-5-15T06:53:18Z
2020-05-15T04:55:39Z,42.805,6.029,13.3017,4.60002,2470.124,2020-5-15T06:56:21Z
2020-05-15T04:58:42Z,42.805,6.029,13.3018,4.60005,2470.11,2020-5-15T06:59:24Z
2020-05-15T05:01:46Z,42.805,6.029,13.2991,4.59994,2470.087,2020-5-15T07:02:28Z
2020-05-15T05:04:49Z,42.805,6.029,13.3008,4.60018,2470.087,2020-5-15T07:05:31Z
2020-05-15T05:07:52Z,42.805,6.029,13.3027,4.60020,2470.087,2020-5-15T07:08:34Z
2020-05-15T05:10:55Z,42.805,6.029,13.3018,4.60040,2470.124,2020-5-15T07:11:37Z
2020-05-15T05:13:59Z,42.805,6.029,13.3006,4.60013,2470.063,2020-5-15T07:14:41Z
2020-05-15T05:17:02Z,42.805,6.029,13.2999,4.60002,2470.11,2020-5-15T07:17:44Z
2020-05-15T05:20:05Z,42.805,6.029,13.2981,4.60000,2470.124,2020-5-15T07:20:47Z
2020-05-15T05:23:09Z,42.805,6.029,13.3018,4.60016,2470.124,2020-5-15T07:23:51Z
2020-05-15T05:26:12Z,42.805,6.029,13.2995,4.60006,2470.063,2020-5-15T07:26:54Z
2020-05-15T05:29:15Z,42.805,6.029,13.2992,4.60006,2470.1,2020-5-15T07:29:57Z
2020-05-15T05:32:19Z,42.805,6.029,13.3006,4.60009,2470.087,2020-5-15T07:33:01Z
2020-05-15T05:35:22Z,42.805,6.029,13.3000,4.60001,2470.1,2020-5-15T07:36:04Z
2020-05-15T05:38:25Z,42.805,6.029,13.2991,4.60000,2470.11,2020-5-15T07:39:07Z
2020-05-15T05:41:28Z,42.805,6.029,13.3007,4.60019,2470.087,2020-5-15T07:42:10Z
2020-05-15T05:44:32Z,42.805,6.029,13.3021,4.60031,2470.087,2020-5-15T07:45:14Z
2020-05-15T05:47:35Z,42.805,6.029,13.2987,4.60011,2470.11,2020-5-15T07:48:17Z
2020-05-15T05:50:38Z,42.805,6.029,13.2999,4.60004,2470.1,2020-5-15T07:51:20Z
2020-05-15T05:53:42Z,42.805,6.029,13.2976,4.60001,2470.1,2020-5-15T07:54:23Z
2020-05-15T05:56:45Z,42.805,6.029,13.2972,4.59993,2470.124,2020-5-15T07:57:27Z
2020-05-15T05:59:48Z,42.805,6.029,13.3015,4.59999,2470.087,2020-5-15T08:00:30Z
2020-05-15T06:02:52Z,42.805,6.029,13.2990,4.59996,2470.1,2020-5-15T08:03:34Z
2020-05-15T06:05:55Z,42.805,6.029,13.2969,4.60013,2470.063,2020-5-15T08:06:37Z
2020-05-15T06:08:58Z,42.805,6.029,13.2969,4.59991,2470.063,2020-5-15T08:09:40Z
2020-05-15T06:12:01Z,42.805,6.029,13.2969,4.59990,2470.053,2020-5-15T08:12:43Z
2020-05-15T06:15:05Z,42.805,6.029,13.2971,4.59995,2470.087,2020-5-15T08:15:46Z
2020-05-15T06:18:08Z,42.805,6.029,13.2972,4.59991,2470.087,2020-5-15T08:18:50Z
2020-05-15T06:21:11Z,42.805,6.029,13.2973,4.59992,2470.073,2020-5-15T08:21:53Z
2020-05-15T06:24:14Z,42.805,6.029,13.2972,4.59982,2470.1,2020-5-15T08:24:56Z
2020-05-15T06:27:18Z,42.805,6.029,13.2970,4.59989,2470.063,2020-5-15T08:27:59Z
2020-05-15T06:30:21Z,42.805,6.029,13.2968,4.59996,2470.124,2020-5-15T08:31:03Z
2020-05-15T06:33:24Z,42.805,6.029,13.2974,4.59989,2470.087,2020-5-15T08:34:06Z
2020-05-15T06:36:27Z,42.805,6.029,13.3034,4.60003,2470.04,2020-5-15T08:37:09Z
2020-05-15T06:39:30Z,42.805,6.029,13.2979,4.60006,2470.077,2020-5-15T08:40:12Z
2020-05-15T06:42:34Z,42.805,6.029,13.3024,4.59998,2470.063,2020-5-15T08:43:16Z
2020-05-15T06:45:37Z,42.805,6.029,13.2973,4.59999,2470.053,2020-5-15T08:46:19Z
2020-05-15T06:48:40Z,42.805,6.029,13.2974,4.59990,2470.053,2020-5-15T08:49:22Z
2020-05-15T06:51:43Z,42.805,6.029,13.2967,4.60003,2470.053,2020-5-15T08:52:25Z
2020-05-15T06:54:46Z,42.805,6.029,13.2977,4.59999,2470.087,2020-5-15T08:55:28Z
2020-05-15T06:57:50Z,42.805,6.029,13.2970,4.59985,2470.077,2020-5-15T08:58:32Z
2020-05-15T07:00:53Z,42.805,6.029,13.2971,4.59989,2470.063,2020-5-15T09:01:35Z
2020-05-15T07:03:56Z,42.805,6.029,13.2969,4.59980,2470.087,2020-5-15T09:04:38Z
2020-05-15T07:06:59Z,42.805,6.029,13.2968,4.59986,2470.04,2020-5-15T09:07:41Z
2020-05-15T07:10:03Z,42.805,6.029,13.2971,4.59988,2470.063,2020-5-15T09:10:45Z
2020-05-15T07:13:06Z,42.805,6.029,13.2971,4.59994,2470.063,2020-5-15T09:13:48Z
2020-05-15T07:16:09Z,42.805,6.029,13.2970,4.59984,2470.063,2020-5-15T09:16:51Z
2020-05-15T07:19:12Z,42.805,6.029,13.2967,4.59985,2470.04,2020-5-15T09:19:54Z
2020-05-15T07:22:16Z,42.805,6.029,13.2971,4.59983,2470.04,2020-5-15T09:22:58Z
2020-05-15T07:25:19Z,42.805,6.029,13.2971,4.59981,2470.063,2020-5-15T09:26:01Z
2020-05-15T07:28:22Z,42.805,6.029,13.2968,4.59979,2470.053,2020-5-15T09:29:04Z
2020-05-15T07:31:25Z,42.805,6.029,13.2972,4.59988,2470.063,2020-5-15T09:32:07Z
2020-05-15T07:34:29Z,42.805,6.029,13.2976,4.60004,2470.063,2020-5-15T09:35:11Z
2020-05-15T07:37:32Z,42.805,6.029,13.2974,4.59997,2470.063,2020-5-15T09:38:14Z
2020-05-15T07:40:35Z,42.805,6.029,13.2966,4.59992,2470.04,2020-5-15T09:41:17Z
2020-05-15T07:43:38Z,42.805,6.029,13.2971,4.59978,2470.053,2020-5-15T09:44:20Z
2020-05-15T07:46:42Z,42.805,6.029,13.2967,4.59984,2470.053,2020-5-15T09:47:23Z
2020-05-15T07:49:45Z,42.805,6.029,13.2968,4.59986,2470.017,2020-5-15T09:50:27Z
2020-05-15T07:52:48Z,42.805,6.029,13.2970,4.59978,2470.053,2020-5-15T09:53:30Z
2020-05-15T07:55:52Z,42.805,6.029,13.2971,4.59978,2470.063,2020-5-15T09:56:34Z
2020-05-15T07:58:55Z,42.805,6.029,13.2967,4.59978,2470.007,2020-5-15T09:59:37Z
2020-05-15T08:01:58Z,42.805,6.029,13.2965,4.59977,2470.04,2020-5-15T10:02:40Z
2020-05-15T08:05:02Z,42.805,6.029,13.2968,4.59981,2470.017,2020-5-15T10:05:44Z
2020-05-15T08:08:05Z,42.805,6.029,13.2966,4.59986,2470.03,2020-5-15T10:08:47Z
2020-05-15T08:11:08Z,42.805,6.029,13.2968,4.59988,2469.993,2020-5-15T10:11:50Z
2020-05-15T08:14:11Z,42.805,6.029,13.2967,4.59990,2470.03,2020-5-15T10:14:53Z
2020-05-15T08:17:15Z,42.805,6.029,13.2964,4.59991,2470.03,2020-5-15T10:17:56Z
2020-05-15T08:20:18Z,42.805,6.029,13.2971,4.59981,2470.03,2020-5-15T10:21:00Z
2020-05-15T08:23:21Z,42.805,6.029,13.2970,4.59989,2470.03,2020-5-15T10:24:03Z
2020-05-15T08:26:24Z,42.805,6.029,13.2967,4.59990,2470.053,2020-5-15T10:27:06Z
2020-05-15T08:29:27Z,42.805,6.029,13.2967,4.59988,2470.017,2020-5-15T10:30:09Z
2020-05-15T08:32:31Z,42.805,6.029,13.2967,4.59982,2470.03,2020-5-15T10:33:12Z
2020-05-15T08:35:34Z,42.805,6.029,13.2972,4.59991,2470.017,2020-5-15T10:36:16Z
2020-05-15T08:38:37Z,42.805,6.029,13.2975,4.60006,2470.04,2020-5-15T10:39:19Z
2020-05-15T08:41:40Z,42.805,6.029,13.2976,4.60011,2469.993,2020-5-15T10:42:22Z
2020-05-15T08:44:44Z,42.805,6.029,13.2974,4.60018,2469.993,2020-5-15T10:45:26Z
2020-05-15T08:47:47Z,42.805,6.029,13.2968,4.60014,2470.03,2020-5-15T10:48:29Z
2020-05-15T08:50:50Z,42.805,6.029,13.2974,4.60000,2470.017,2020-5-15T10:51:32Z
2020-05-15T08:53:53Z,42.805,6.029,13.2970,4.59986,2470.017,2020-5-15T10:54:35Z
2020-05-15T08:56:56Z,42.805,6.029,13.2970,4.59999,2470.007,2020-5-15T10:57:38Z
2020-05-15T09:00:00Z,42.805,6.029,13.2973,4.59990,2470.017,2020-5-15T11:00:42Z
2020-05-15T09:03:03Z,42.805,6.029,13.2969,4.60019,2469.993,2020-5-15T11:03:45Z
2020-05-15T09:06:06Z,42.805,6.029,13.2971,4.59991,2469.993,2020-5-15T11:06:48Z
2020-05-15T09:09:10Z,42.805,6.029,13.2968,4.60015,2470.017,2020-5-15T11:09:52Z
2020-05-15T09:12:13Z,42.805,6.029,13.2971,4.60026,2470.017,2020-5-15T11:12:55Z
2020-05-15T09:15:16Z,42.805,6.029,13.2974,4.60008,2470.017,2020-5-15T11:15:58Z
2020-05-15T09:18:19Z,42.805,6.029,13.2969,4.59996,2469.97,2020-5-15T11:19:01Z
2020-05-15T09:21:22Z,42.805,6.029,13.2971,4.60009,2470.007,2020-5-15T11:22:04Z
2020-05-15T09:24:26Z,42.805,6.029,13.2970,4.60001,2470.017,2020-5-15T11:25:08Z
2020-05-15T09:27:29Z,42.805,6.029,13.2974,4.59986,2469.993,2020-5-15T11:28:11Z
2020-05-15T09:30:32Z,42.805,6.029,13.2973,4.59996,2470.007,2020-5-15T11:31:14Z
2020-05-15T09:33:36Z,42.805,6.029,13.2970,4.59984,2470.03,2020-5-15T11:34:18Z
2020-05-15T09:36:39Z,42.805,6.029,13.2972,4.59995,2470.04,2020-5-15T11:37:21Z
2020-05-15T09:39:42Z,42.805,6.029,13.2974,4.59996,2470.04,2020-5-15T11:40:24Z
2020-05-15T09:42:45Z,42.805,6.029,13.2974,4.59999,2470.03,2020-5-15T11:43:27Z
2020-05-15T09:45:49Z,42.805,6.029,13.2968,4.60000,2470.017,2020-5-15T11:46:30Z
2020-05-15T09:48:52Z,42.805,6.029,13.2969,4.59988,2470.053,2020-5-15T11:49:34Z
2020-05-15T09:51:55Z,42.805,6.029,13.2970,4.59999,2470.053,2020-5-15T11:52:37Z
2020-05-15T09:54:58Z,42.805,6.029,13.2973,4.59995,2470.04,2020-5-15T11:55:40Z
2020-05-15T09:58:02Z,42.805,6.029,13.2973,4.59989,2469.993,2020-5-15T11:58:44Z
2020-05-15T10:01:05Z,42.805,6.029,13.2972,4.59991,2470.03,2020-5-15T12:01:47Z
2020-05-15T10:04:08Z,42.805,6.029,13.2971,4.60005,2470.04,2020-5-15T12:04:50Z
2020-05-15T10:07:12Z,42.805,6.029,13.2980,4.60010,2470.017,2020-5-15T12:07:53Z
2020-05-15T10:10:15Z,42.805,6.029,13.2979,4.60003,2470.007,2020-5-15T12:10:57Z
2020-05-15T10:13:18Z,42.805,6.029,13.2969,4.60039,2469.993,2020-5-15T12:14:00Z
2020-05-15T10:16:21Z,42.805,6.029,13.2969,4.60036,2470.017,2020-5-15T12:17:03Z
2020-05-15T10:19:24Z,42.805,6.029,13.2969,4.60033,2470.017,2020-5-15T12:20:06Z
2020-05-15T10:22:28Z,42.805,6.029,13.2973,4.60011,2469.993,2020-5-15T12:23:10Z
2020-05-15T10:25:31Z,42.805,6.029,13.2969,4.60011,2470.063,2020-5-15T12:26:13Z
2020-05-15T10:28:34Z,42.805,6.029,13.2971,4.60020,2470.017,2020-5-15T12:29:16Z
2020-05-15T10:31:37Z,42.805,6.029,13.2968,4.60016,2469.993,2020-5-15T12:32:19Z
2020-05-15T10:34:41Z,42.805,6.029,13.2969,4.60006,2470.03,2020-5-15T12:35:23Z
2020-05-15T10:37:44Z,42.805,6.029,13.2968,4.60011,2470.04,2020-5-15T12:38:26Z
2020-05-15T10:40:47Z,42.805,6.029,13.2968,4.60006,2470.053,2020-5-15T12:41:29Z
2020-05-15T10:43:50Z,42.805,6.029,13.2973,4.60075,2469.993,2020-5-15T12:44:32Z
2020-05-15T10:46:54Z,42.805,6.029,13.2971,4.60038,2470.063,2020-5-15T12:47:36Z
2020-05-15T10:49:57Z,42.805,6.029,13.2972,4.60069,2469.993,2020-5-15T12:50:39Z
2020-05-15T10:53:00Z,42.805,6.029,13.2973,4.60018,2470.017,2020-5-15T12:53:42Z
2020-05-15T10:56:03Z,42.805,6.029,13.2971,4.60017,2470.017,2020-5-15T12:56:45Z
2020-05-15T10:59:07Z,42.805,6.029,13.2974,4.60041,2470.053,2020-5-15T12:59:49Z
2020-05-15T11:02:10Z,42.805,6.029,13.2968,4.60120,2470.053,2020-5-15T13:02:52Z
2020-05-15T11:05:13Z,42.805,6.029,13.2976,4.60044,2470.017,2020-5-15T13:05:55Z
2020-05-15T11:08:16Z,42.805,6.029,13.2982,4.60028,2470.017,2020-5-15T13:08:58Z
2020-05-15T11:11:20Z,42.805,6.029,13.3003,4.60033,2470.053,2020-5-15T13:12:02Z
2020-05-15T11:14:23Z,42.805,6.029,13.3006,4.60053,2470.04,2020-5-15T13:15:05Z
2020-05-15T11:17:26Z,42.805,6.029,13.3056,4.60057,2470.04,2020-5-15T13:18:08Z
2020-05-15T11:20:30Z,42.805,6.029,13.3044,4.60028,2470.03,2020-5-15T13:21:12Z
2020-05-15T11:23:33Z,42.805,6.029,13.3046,4.60039,2469.993,2020-5-15T13:24:15Z
2020-05-15T11:26:36Z,42.805,6.029,13.3039,4.60036,2470.053,2020-5-15T13:27:18Z
2020-05-15T11:29:39Z,42.805,6.029,13.3038,4.60052,2470.053,2020-5-15T13:30:21Z
2020-05-15T11:32:43Z,42.805,6.029,13.3015,4.60029,2470.007,2020-5-15T13:33:25Z
2020-05-15T11:35:46Z,42.805,6.029,13.3030,4.60054,2470.03,2020-5-15T13:36:28Z
2020-05-15T11:38:49Z,42.805,6.029,13.3035,4.60021,2470.044,2020-5-15T13:39:31Z
2020-05-15T11:41:52Z,42.805,6.029,13.3041,4.60035,2470.03,2020-5-15T13:42:34Z
2020-05-15T11:44:56Z,42.805,6.029,13.3039,4.60029,2470.04,2020-5-15T13:45:38Z
2020-05-15T11:47:59Z,42.805,6.029,13.3040,4.60016,2470.053,2020-5-15T13:48:41Z
2020-05-15T11:51:02Z,42.805,6.029,13.3039,4.60015,2470.053,2020-5-15T13:51:44Z
2020-05-15T11:54:05Z,42.805,6.029,13.3036,4.60017,2470.063,2020-5-15T13:54:47Z
2020-05-15T11:57:09Z,42.805,6.029,13.3042,4.60040,2470.017,2020-5-15T13:57:51Z
2020-05-15T12:00:12Z,42.805,6.029,13.3039,4.60015,2470.03,2020-5-15T14:00:54Z
2020-05-15T12:03:15Z,42.805,6.029,13.3039,4.60005,2470.04,2020-5-15T14:03:57Z
2020-05-15T12:06:18Z,42.805,6.029,13.3027,4.60020,2469.993,2020-5-15T14:07:00Z
2020-05-15T12:09:22Z,42.805,6.029,13.3045,4.60001,2470.03,2020-5-15T14:10:03Z
2020-05-15T12:12:25Z,42.805,6.029,13.3054,4.60011,2470.053,2020-5-15T14:13:07Z
2020-05-15T12:15:28Z,42.805,6.029,13.3064,4.59996,2470.053,2020-5-15T14:16:10Z
2020-05-15T12:18:31Z,42.805,6.029,13.3054,4.59998,2470.04,2020-5-15T14:19:13Z
2020-05-15T12:21:34Z,42.805,6.029,13.3049,4.59988,2470.077,2020-5-15T14:22:16Z
2020-05-15T12:24:38Z,42.805,6.029,13.3064,4.59998,2470.077,2020-5-15T14:25:20Z
2020-05-15T12:27:41Z,42.805,6.029,13.3048,4.59998,2470.063,2020-5-15T14:28:23Z
2020-05-15T12:30:44Z,42.805,6.029,13.3034,4.59990,2470.007,2020-5-15T14:31:26Z
2020-05-15T12:33:47Z,42.805,6.029,13.3019,4.59995,2469.984,2020-5-15T14:34:29Z
2020-05-15T12:36:51Z,42.805,6.029,13.3036,4.59997,2470.053,2020-5-15T14:37:33Z
2020-05-15T12:39:54Z,42.805,6.029,13.3014,4.60001,2470.077,2020-5-15T14:40:36Z
2020-05-15T12:42:57Z,42.805,6.029,13.3019,4.60026,2470.03,2020-5-15T14:43:39Z
2020-05-15T12:46:00Z,42.805,6.029,13.3021,4.60057,2470.053,2020-5-15T14:46:42Z
2020-05-15T12:49:04Z,42.805,6.029,13.3015,4.60004,2470.053,2020-5-15T14:49:45Z
2020-05-15T12:52:07Z,42.805,6.029,13.3006,4.60044,2470.077,2020-5-15T14:52:49Z
2020-05-15T12:55:10Z,42.805,6.029,13.3043,4.60052,2470.017,2020-5-15T14:55:52Z
2020-05-15T12:58:13Z,42.805,6.029,13.3036,4.60027,2470.04,2020-5-15T14:58:55Z
2020-05-15T13:01:17Z,42.805,6.029,13.2996,4.60031,2470.063,2020-5-15T15:01:59Z
2020-05-15T13:04:20Z,42.805,6.029,13.3002,4.60046,2470.077,2020-5-15T15:05:02Z
2020-05-15T13:07:23Z,42.805,6.029,13.3036,4.60038,2470.053,2020-5-15T15:08:05Z
2020-05-15T13:10:26Z,42.805,6.029,13.3054,4.60027,2470.053,2020-5-15T15:11:08Z
2020-05-15T13:13:30Z,42.805,6.029,13.3007,4.60019,2470.04,2020-5-15T15:14:12Z
2020-05-15T13:16:33Z,42.805,6.029,13.2987,4.60009,2470.053,2020-5-15T15:17:15Z
2020-05-15T13:19:36Z,42.805,6.029,13.3025,4.60052,2470.053,2020-5-15T15:20:18Z
2020-05-15T13:22:39Z,42.805,6.029,13.3034,4.60042,2470.04,2020-5-15T15:23:21Z
2020-05-15T13:25:43Z,42.805,6.029,13.3029,4.60026,2470.063,2020-5-15T15:26:25Z
2020-05-15T13:28:46Z,42.805,6.029,13.3041,4.60031,2470.03,2020-5-15T15:29:28Z
2020-05-15T13:31:50Z,42.805,6.029,13.3031,4.60047,2470.007,2020-5-15T15:32:32Z
2020-05-15T13:34:53Z,42.805,6.029,13.3029,4.60051,2470.03,2020-5-15T15:35:35Z
2020-05-15T13:37:57Z,42.805,6.029,13.3022,4.60055,2470.04,2020-5-15T15:38:39Z
2020-05-15T13:41:00Z,42.805,6.029,13.3004,4.60039,2470.053,2020-5-15T15:41:42Z
2020-05-15T13:44:03Z,42.805,6.029,13.3005,4.60035,2470.077,2020-5-15T15:44:45Z
2020-05-15T13:47:06Z,42.805,6.029,13.3013,4.60029,2470.04,2020-5-15T15:47:48Z
2020-05-15T13:50:10Z,42.805,6.029,13.3019,4.60021,2470.053,2020-5-15T15:50:52Z
2020-05-15T13:53:13Z,42.805,6.029,13.3038,4.60059,2470.04,2020-5-15T15:53:55Z
2020-05-15T13:56:16Z,42.805,6.029,13.3029,4.60056,2470.053,2020-5-15T15:56:58Z
2020-05-15T13:59:19Z,42.805,6.029,13.3040,4.60050,2470.03,2020-5-15T16:00:01Z
2020-05-15T14:02:23Z,42.805,6.029,13.3036,4.60021,2470.03,2020-5-15T16:03:05Z
2020-05-15T14:05:26Z,42.805,6.029,13.3046,4.60039,2470.04,2020-5-15T16:06:08Z
2020-05-15T14:08:29Z,42.805,6.029,13.3036,4.60003,2470.017,2020-5-15T16:09:11Z
2020-05-15T14:11:32Z,42.805,6.029,13.3003,4.60058,2470.053,2020-5-15T16:12:14Z
2020-05-15T14:14:36Z,42.805,6.029,13.3021,4.60043,2470.04,2020-5-15T16:15:18Z
2020-05-15T14:17:39Z,42.805,6.029,13.3028,4.60040,2470.063,2020-5-15T16:18:21Z
2020-05-15T14:20:42Z,42.805,6.029,13.3038,4.60057,2470.063,2020-5-15T16:21:24Z
2020-05-15T14:23:45Z,42.805,6.029,13.3041,4.60033,2470.04,2020-5-15T16:24:27Z
2020-05-15T14:26:49Z,42.805,6.029,13.3047,4.60052,2470.053,2020-5-15T16:27:30Z
2020-05-15T14:29:52Z,42.805,6.029,13.3045,4.60016,2470.017,2020-5-15T16:30:34Z
2020-05-15T14:32:55Z,42.805,6.029,13.3049,4.60049,2470.063,2020-5-15T16:33:37Z
2020-05-15T14:35:58Z,42.805,6.029,13.3031,4.60048,2470.03,2020-5-15T16:36:40Z
2020-05-15T14:39:02Z,42.805,6.029,13.3026,4.60021,2470.017,2020-5-15T16:39:44Z
2020-05-15T14:42:05Z,42.805,6.029,13.3023,4.60054,2470.03,2020-5-15T16:42:47Z
2020-05-15T14:45:08Z,42.805,6.029,13.3039,4.60060,2470.04,2020-5-15T16:45:50Z
2020-05-15T14:48:11Z,42.805,6.029,13.3042,4.60009,2470.077,2020-5-15T16:48:53Z
2020-05-15T14:51:15Z,42.805,6.029,13.3036,4.60021,2470.077,2020-5-15T16:51:57Z
2020-05-15T14:54:18Z,42.805,6.029,13.2995,4.60031,2470.04,2020-5-15T16:55:00Z
2020-05-15T14:57:21Z,42.805,6.029,13.3043,4.60023,2470.03,2020-5-15T16:58:03Z
2020-05-15T15:00:24Z,42.805,6.029,13.3038,4.60014,2470.077,2020-5-15T17:01:06Z
2020-05-15T15:03:27Z,42.805,6.029,13.3030,4.60001,2470.053,2020-5-15T17:04:09Z
2020-05-15T15:06:31Z,42.805,6.029,13.3033,4.60042,2470.067,2020-5-15T17:07:13Z
2020-05-15T15:09:34Z,42.805,6.029,13.3055,4.60026,2470.053,2020-5-15T17:10:16Z
2020-05-15T15:12:37Z,42.805,6.029,13.3026,4.60032,2470.04,2020-5-15T17:13:19Z
2020-05-15T15:15:41Z,42.805,6.029,13.3000,4.60067,2470.053,2020-5-15T17:16:23Z